{"data":{"norad_id":69847,"intl_designator":"2026-154AE","name":"STARLINK-37595","alt_names":[],"object_type":"PAYLOAD","status":"ACTIVE","operator":null,"country":"US","launch_date":"2026-07-05","launch_site_code":"AFETR","launch_vehicle":null,"mission":null,"orbit_class":"UNKNOWN","rcs_meters":null,"size_class":null,"mass_kg":null,"dimensions":null,"purposes":["comms"],"wikipedia_slug":null,"has_3d_model":false,"image_url":null,"decayed_at":null,"tle_current":{"epoch":"2026-09-19T18:33:23.702400Z","epoch_age_seconds":80581,"freshness":"FRESH","line1":"1 69847U 26154AE  26262.77319100  .00007837  00000+0  24283-3 0  9994","line2":"2 69847  53.1577 335.3145 0000522  84.1683 275.9379 15.34397200 13120","mean_motion":15.343972,"eccentricity":5.22e-5,"inclination_deg":53.1577,"raan_deg":335.3145,"arg_perigee_deg":84.1683,"mean_anomaly_deg":275.9379,"bstar":0.00024283,"rev_number":1312,"period_min":93.84792933668,"perigee_km":462.35447011488,"apogee_km":463.06865470479,"semimajor_km":6840.8485624098,"source":"CELESTRAK","updated_at":"2026-09-20T09:00:44.298482Z"}}}